Hourly Data Report for August 30, 2021

ALGONQUIN PARK EAST GATE
ONTARIO
Current Station Operator: ECCC - MSC

45°32'00.000" N
78°16'00.000" W
397.00 m
6080192
71581
TNK

Download Data

Hourly Data (August 2021)
Hourly Data Report for August 30, 2021
TIME
LST
Temp Definition
°C
Dew Point Definition
°C
Rel Hum Definition
%
Precip. Amount Definition
mm

Wind Dir Definition
10's deg

Wind Spd Definition
km/h
Visibility Definition
km
Stn Press Definition
kPa
Hmdx Definition


Wind Chill Definition


Weather Definition


00:00 19.1 18.8 98 0.8 0 1   96.41     LegendNANA
01:00 19.3 19.0 98 0.8 0 1   96.38     LegendNANA
02:00 19.5 19.1 97 0.7 27 3   96.31     LegendNANA
03:00 19.1 18.6 97 0.0 26 3   96.31     LegendNANA
04:00 17.6 17.1 97 0.0   0   96.31     LegendNANA
05:00 17.4 16.9 97 0.0 25 2   96.35     LegendNANA
06:00 16.0 15.6 98 0.0 26 2   96.37     LegendNANA
07:00 16.9 16.2 96 0.0 23 4   96.37     LegendNANA
08:00 18.8 16.4 86 0.0 27 6   96.38     LegendNANA
09:00 20.5 17.2 82 0.0 25 7   96.39 26   LegendNANA
10:00 21.8 16.8 73 0.0 27 6   96.36 27   LegendNANA
11:00 22.7 14.7 61 0.0 28 8   96.32 26   LegendNANA
12:00 23.3 14.9 59 0.0 30 5   96.26 27   LegendNANA
13:00 24.4 14.9 55 0.0 26 8   96.22 28   LegendNANA
14:00 24.5 12.7 48 0.0 26 9   96.16 27   LegendNANA
15:00 23.5 14.3 56 0.0 27 8   96.15 27   LegendNANA
16:00 22.8 14.9 61 0.0 27 7   96.15 27   LegendNANA
17:00 22.3 13.0 56 0.0 26 8   96.12 25   LegendNANA
18:00 20.8 13.2 62 0.0 28 6   96.14     LegendNANA
19:00 18.7 13.7 73 0.0 24 2   96.17     LegendNANA
20:00 17.3 14.3 83 0.0 26 4   96.22     LegendNANA
21:00 15.5 13.8 90 0.0 0 1   96.23     LegendNANA
22:00 14.5 13.4 93 0.0 0 1   96.22     LegendNANA
23:00 14.5 13.7 95 0.0 0 1   96.22     LegendNANA

Notes on Data Quality.

Legend

  • E = Estimated
  • M = Missing
  • NA = Not Available*
  • [empty] = Indicates an unobserved value
Date modified: